STARLINK-1022 (44727 NORAD) Tracking and Keplerian Element Data

This shows tracking and keplerian element data for the satellite.

Feedback or suggestion? Click here.




ElementValue
Catalog44727
NameSTARLINK-1022
Epoch Orbit161
Epoch Day93.91667824
Epoch Year2020
RAAN233.5109
Inclination53.025
Eccentricity0.0001616
Argument of Perigee102.0077
Mean Anonmoly28.6031
Mean Motion15.05573773
Decay Rate8.765E-05
L11 44727U 19074Q 20093.91667824 .00008765 00000-0 62007-3 0 9996
L22 44727 53.0250 233.5109 0001616 102.0077 28.6031 15.05573773 1616

Live tracking and technical data element details for STARLINK-1022 (NORAD 44727). STARLINK-1022 can be tracked NOW for your location showing map with azimuth and elevation plus other details from your city location.

Track the satellite on the map from your city or location and see movement details for azimuth, elevation, latitude, longitude, range, height, and movement on the map or in text.







IsCatalogInMostPopularTable: catalog: 44727, numindb: 27
Update: records affected: 1



GetName: 44727 STARLINK-1022

Hit Count: updated at: Fri, 10 Apr 2020 19:27:19 GMT